Tracking 25410 objects as of 21-Jan-2022
HD Live streaming from Space Station
objects crossing your sky now

COSMOS 2303

Track COSMOS 2303 now!
10-day predictions
COSMOS 2303 is classified as:


NORAD ID: 23445
Int'l Code: 1994-086E
Perigee: 1,420.1 km
Apogee: 1,435.9 km
Inclination: 82.6 °
Period: 114.2 minutes
Semi major axis: 7799 km
RCS: 1.1077 m2 (large)
Launch date: December 26, 1994
Source: Commonwealth of Independent States (former USSR) (CIS)
Launch site: PLESETSK MISSILE AND SPACE COMPLEX (PKMTR)
aabbcc
Your satellite tracking list
Your tracking list is empty




NASA's NSSDC Master Catalog

Two Line Element Set (TLE):
1 23445U 94086E   22021.29623146  .00000031  00000-0  11909-3 0  9992
2 23445  82.5754 289.0923 0010139 238.1209 244.2255 12.60501888245591
Source of the keplerian elements: AFSPC